Regional Weather Roundup
Issued by NWS New Orleans/Baton Rouge, LA

Home | Current Version | Previous Version | Graphics & Text | Print | Product List | Glossary On
Versions: 1 2 3 4 5 6 7 8 9 10 11 12 13 14 15 16 17 18 19 20 21 22 23 24 25 26 27 28 29 30 31 32 33 34 35 36 37 38 39 40 41 42 43 44 45 46 47 48 49 50
778
ASUS44 KLIX 300601
RWRLIX
NEW ORLEANS REGIONAL WEATHER ROUNDUP
NATIONAL WEATHER SERVICE NEW ORLEANS LA
100 AM CDT THU OCT 30 2014

NOTE: "FAIR" INDICATES FEW OR NO CLOUDS BELOW 12,000 FEET WITH NO
      SIGNIFICANT WEATHER AND/OR OBSTRUCTIONS TO VISIBILITY.
      SKY/WX - SKY CONDITION AND SIGNIFICANT WEATHER.
      TMP - AIR TEMPERATURE.     DP    - DEWPOINT TEMPERATURE.
      RH  - RELATIVE HUMIDITY.   PRES  - PRESSURE.
      HI  - HEAT INDEX.          WCI   - WIND CHILL INDEX.

*  THESE STATIONS ARE NOT NWS OR FAA STATIONS AND ARE NOT UNDER
   NWS QUALITY CONTROL.

LAZ038-040-048-061>063-065>067-069-300700-
SOUTHEAST LOUISIANA

CITY           SKY/WX    TMP DP  RH WIND       PRES   REMARKS
N.O. AUDUBON     N/A     70  62  77 MISG        N/A
6HR MIN TEMP:  69; 6HR MAX TEMP:  78;

N.O. INTL ARPT MOCLDY    69  54  58 NE17      30.07S
6HR MIN TEMP:  69; 6HR MAX TEMP:  76;

N.O. LAKEFRONT CLOUDY    69  57  65 NE20      30.08R
6HR MIN TEMP:  69; 6HR MAX TEMP:  77;

N.O. DOWNTOWN* CLOUDY    70  55  60 N8        30.08R
6HR MIN TEMP:  70; 6HR MAX TEMP:  79;

SLIDELL        MOCLDY    63  52  67 N6        30.07S
6HR MIN TEMP:  63; 6HR MAX TEMP:  74;

BATON ROUGE    PTCLDY    59  51  75 NE3       30.10S
6HR MIN TEMP:  59; 6HR MAX TEMP:  69;

BOOTHVILLE     CLOUDY    73  68  84 N12G18    30.04S
6HR MIN TEMP:  73; 6HR MAX TEMP:  75;

BELLE CHASSE   CLEAR     69  61  75 NE6       30.06R
6HR MIN TEMP:  69; 6HR MAX TEMP:  77;

BOGALUSA*        N/A     59  52  76 N5        30.11S
6HR MIN TEMP:  58; 6HR MAX TEMP:  73;

NEW ROADS*       N/A     56  51  84 N3        30.11S
6HR MIN TEMP:  55; 6HR MAX TEMP:  65;

GONZALES*        N/A     64  55  71 N6        30.08S
6HR MIN TEMP:  64; 6HR MAX TEMP:  73;

HAMMOND*       NOT AVBL
HOUMA*         CLEAR     64  63  94 N5        30.06S
6HR MIN TEMP:  64; 6HR MAX TEMP:  77;

PORT FOURCHON* CLOUDY    73  68  83 N10G16    30.07F

$$

MSZ070-080>082-300700-
SOUTHERN MISSISSIPPI

CITY           SKY/WX    TMP DP  RH WIND       PRES   REMARKS
MCCOMB         CLEAR     58  46  64 N6        30.11S
6HR MIN TEMP:  58; 6HR MAX TEMP:  68;

GULFPORT       PTCLDY    64  55  72 N7        30.06S
6HR MIN TEMP:  64; 6HR MAX TEMP:  75;

BILOXI         PTCLDY    64  59  84 NE10      30.06S
6HR MIN TEMP:  64; 6HR MAX TEMP:  74; 6HR PCP:  0.04;

PASCAGOULA     MOCLDY    63  57  81 N8        30.07R
6HR MIN TEMP:  63; 6HR MAX TEMP:  73;


$$

COASTAL OBSERVATIONS
LAKE AND NEARSHORE STATIONS

STATION/POSITION TIME  TEMP    WIND        PRES    WAVE
                       AIR SEA DIR/SP/G            HT/PER
                 (UTC) (F)     (DEG/KT/KT) (MB)    (FT/S)
PASCAGOULA       0500   66      20/ 12/ 17 1017.2
WAVELAND YACHT   0500   66      30/ 11/ 13 1017.4
GRAND ISLE       0500   73 78   30/ 12/ 17 1017.8
SOUTHWEST PASS   0500   72 78              1017.0
NEW CANAL        0500   69 72   30/ 16/ 18 1018.5
SHELL BEACH      0500   71 71   20/ 16/ 19 1017.7

OFFSHORE STATIONS

STATION/POSITION TIME  TEMP    WIND        PRES    WAVE
                       AIR SEA DIR/SP/G            HT/PER
                 (UTC) (F)     (DEG/KT/KT) (MB)    (FT/S)
64 S DAUPHIN ISL 0505   75 78  330/  6/  8 1016.6    1/ 7

$$




USA.gov is the U.S. government's official web portal to all federal, state and local government web resources and services.